South Haven, MI

3:46 AM EDT on May 01, 2017 (GMT -0400)
South Haven

Weather History for KLWA - April, 2014

Change the Weather History Date:

Wednesday, April 16, 2014

  Actual Average (KBEH) Record (KBEH)
Temperature  
Mean Temperature 35 °F -  
Max Temperature 48 °F 59 °F 86 °F (1976)
Min Temperature 22 °F 37 °F 21 °F (2014)
Degree Days  
Heating Degree Days 30    
Moisture  
Dew Point 18 °F    
Average Humidity 49    
Maximum Humidity 75    
Minimum Humidity 28    
Precipitation  
Precipitation 0.00 in - - ()
Sea Level Pressure  
Sea Level Pressure 30.28 in    
Wind  
Wind Speed 6 mph (SE)    
Max Wind Speed 17 mph    
Max Gust Speed 24 mph    
Visibility 10 miles    
Events      
Averages and records for this station are not official NWS values.
T = Trace of Precipitation, MM = Missing Value Source: NWS Daily Summary

Daily Weather History Graph

Daily Weather History Graph

Search for Another Location

Airport or City:

Trip Planner

Search our weather history database for the weather conditions in past years. The results will help you decide how hot, cold, wet, or windy it might be!

Date:

Astronomy

Apr. 16, 2014 Rise Set
Actual Time 7:02 AM EDT 8:27 PM EDT
Civil Twilight 6:33 AM EDT 8:57 PM EDT
Nautical Twilight 5:58 AM EDT 9:32 PM EDT
Astronomical Twilight 5:20 AM EDT 10:10 PM EDT
Moon 10:12 PM EDT (4/16) 7:48 AM EDT (4/16)
Length of Visible Light 14h 23m
Length of Day
13h 25m
Full, 98% of the Moon is Illuminated
Apr 16
Full
Apr 22
Last Quarter
Apr 29
New
May 6
First Quarter
May 14
Full

Hourly Weather History & Observations

Time (EDT) Temp. Windchill Dew Point Humidity Pressure Visibility Wind Dir Wind Speed Gust Speed Precip Events Conditions
12:16 AM 24.1 °F - 17.2 °F 75% 30.24 in 10.0 mi Calm Calm - N/A   Clear
12:36 AM 24.3 °F - 16.3 °F 72% 30.24 in 10.0 mi Calm Calm - N/A   Clear
12:56 AM 24.3 °F 19.9 °F 16.2 °F 71% 30.24 in 10.0 mi ESE 3.5 mph - N/A   Clear
1:15 AM 24.3 °F 19.9 °F 15.4 °F 69% 30.24 in 10.0 mi ESE 3.5 mph - N/A   Clear
1:36 AM 24.4 °F 18.6 °F 14.9 °F 67% 30.24 in 10.0 mi ESE 4.6 mph - N/A   Clear
1:56 AM 24.6 °F 20.3 °F 15.4 °F 68% 30.25 in 10.0 mi ESE 3.5 mph - N/A   Clear
2:16 AM 24.8 °F 20.5 °F 15.4 °F 68% 30.25 in 10.0 mi ESE 3.5 mph - N/A   Clear
2:36 AM 24.6 °F 20.3 °F 15.4 °F 68% 30.26 in 10.0 mi ESE 3.5 mph - N/A   Clear
2:55 AM 24.6 °F - 15.4 °F 68% 30.26 in 10.0 mi Calm Calm - N/A   Clear
3:16 AM 24.6 °F - 15.6 °F 69% 30.26 in 10.0 mi Calm Calm - N/A   Clear
3:36 AM 22.8 °F 18.2 °F 15.8 °F 74% 30.26 in 10.0 mi ESE 3.5 mph - N/A   Clear
3:55 AM 24.3 °F - 15.3 °F 69% 30.27 in 10.0 mi Calm Calm - N/A   Clear
4:16 AM 24.4 °F - 15.6 °F 69% 30.28 in 10.0 mi Calm Calm - N/A   Clear
4:36 AM 24.4 °F - 14.9 °F 67% 30.29 in 10.0 mi Calm Calm - N/A   Clear
4:56 AM 24.3 °F 18.4 °F 15.1 °F 68% 30.29 in 10.0 mi SE 4.6 mph - N/A   Clear
5:16 AM 24.8 °F 17.9 °F 14.9 °F 66% 30.29 in 10.0 mi SE 5.8 mph - N/A   Clear
5:35 AM 25.0 °F 19.3 °F 14.9 °F 66% 30.30 in 10.0 mi SE 4.6 mph - N/A   Clear
5:56 AM 25.2 °F 19.5 °F 14.9 °F 65% 30.30 in 10.0 mi SE 4.6 mph - N/A   Clear
6:16 AM 25.2 °F 18.3 °F 15.1 °F 66% 30.30 in 10.0 mi SE 5.8 mph - N/A   Clear
6:35 AM 25.5 °F 19.9 °F 14.9 °F 64% 30.31 in 10.0 mi SE 4.6 mph - N/A   Clear
6:56 AM 25.3 °F 19.7 °F 15.3 °F 66% 30.31 in 10.0 mi SE 4.6 mph - N/A   Clear
7:16 AM 25.5 °F 19.9 °F 14.9 °F 64% 30.32 in 10.0 mi SE 4.6 mph - N/A   Clear
7:36 AM 26.1 °F 18.4 °F 15.4 °F 64% 30.32 in 10.0 mi SE 6.9 mph - N/A   Clear
7:56 AM 27.3 °F 22.0 °F 16.0 °F 62% 30.33 in 10.0 mi SE 4.6 mph - N/A   Mostly Cloudy
8:15 AM 28.2 °F 22.0 °F 16.0 °F 60% 30.35 in 10.0 mi SSE 5.8 mph - N/A   Overcast
8:36 AM 29.1 °F 21.3 °F 16.0 °F 58% 30.35 in 10.0 mi SSE 8.1 mph - N/A   Mostly Cloudy
8:56 AM 30.2 °F 22.6 °F 16.3 °F 56% 30.36 in 10.0 mi SSE 8.1 mph - N/A   Overcast
9:15 AM 30.9 °F 24.3 °F 16.7 °F 56% 30.36 in 10.0 mi SSE 6.9 mph - N/A   Overcast
9:36 AM 32.0 °F 26.4 °F 16.7 °F 53% 30.37 in 10.0 mi SSE 5.8 mph - N/A   Mostly Cloudy
9:56 AM 33.8 °F 27.0 °F 17.2 °F 51% 30.37 in 10.0 mi SSE 8.1 mph - N/A   Clear
10:16 AM 35.6 °F 28.0 °F 18.1 °F 49% 30.37 in 10.0 mi SSE 10.4 mph - N/A   Clear
10:36 AM 36.9 °F 30.7 °F 17.8 °F 46% 30.37 in 10.0 mi SSE 8.1 mph 16.1 mph N/A   Clear
10:55 AM 38.3 °F 33.2 °F 18.9 °F 46% 30.37 in 10.0 mi South 6.9 mph - N/A   Clear
11:16 AM 39.0 °F 31.8 °F 17.6 °F 42% 30.37 in 10.0 mi SE 11.5 mph - N/A   Clear
11:36 AM 39.9 °F 32.9 °F 19.0 °F 43% 30.36 in 10.0 mi South 11.5 mph 17.3 mph N/A   Clear
11:55 AM 40.5 °F 34.6 °F 17.6 °F 40% 30.36 in 10.0 mi SSE 9.2 mph 19.6 mph N/A   Clear
12:16 PM 41.4 °F 35.7 °F 19.2 °F 41% 30.36 in 10.0 mi South 9.2 mph 19.6 mph N/A   Clear
12:36 PM 42.1 °F 36.1 °F 19.6 °F 41% 30.35 in 10.0 mi South 10.4 mph - N/A   Clear
12:56 PM 42.4 °F 36.1 °F 18.1 °F 38% 30.33 in 10.0 mi SSE 11.5 mph 19.6 mph N/A   Clear
1:16 PM 43.7 °F 37.3 °F 18.7 °F 37% 30.33 in 10.0 mi SSE 12.7 mph 17.3 mph N/A   Clear
1:35 PM 43.7 °F 38.1 °F 17.1 °F 34% 30.32 in 10.0 mi South 10.4 mph 21.9 mph N/A   Clear
1:56 PM 44.4 °F 39.5 °F 18.0 °F 35% 30.31 in 10.0 mi SSE 9.2 mph 20.7 mph N/A   Clear
2:16 PM 45.0 °F 40.6 °F 18.0 °F 34% 30.30 in 10.0 mi SSE 8.1 mph 18.4 mph N/A   Clear
2:35 PM 45.1 °F 38.4 °F 16.9 °F 32% 30.30 in 10.0 mi South 15.0 mph 21.9 mph N/A   Clear
2:56 PM 46.0 °F 39.6 °F 17.6 °F 32% 30.29 in 10.0 mi SSE 15.0 mph 20.7 mph N/A   Clear
3:15 PM 46.4 °F 42.4 °F 18.0 °F 32% 30.28 in 10.0 mi SSE 8.1 mph 18.4 mph N/A   Clear
3:36 PM 46.8 °F - 16.9 °F 30% 30.28 in 10.0 mi South 15.0 mph 23.0 mph N/A   Clear
3:56 PM 46.9 °F - 17.4 °F 31% 30.27 in 10.0 mi South 17.3 mph 24.2 mph N/A   Clear
4:15 PM 47.5 °F - 17.1 °F 30% 30.26 in 10.0 mi SSE 11.5 mph 20.7 mph N/A   Clear
4:36 PM 48.0 °F - 18.1 °F 31% 30.26 in 10.0 mi SSE 9.2 mph 19.6 mph N/A   Clear
4:56 PM 48.4 °F - 19.6 °F 32% 30.26 in 10.0 mi SSE 10.4 mph 20.7 mph N/A   Clear
5:15 PM 48.4 °F - 16.7 °F 28% 30.25 in 10.0 mi SE 11.5 mph 23.0 mph N/A   Clear
5:36 PM 48.4 °F - 17.2 °F 29% 30.24 in 10.0 mi South 12.7 mph 24.2 mph N/A   Clear
5:56 PM 47.7 °F - 17.6 °F 30% 30.24 in 10.0 mi SE 15.0 mph 19.6 mph N/A   Clear
6:16 PM 48.6 °F - 18.1 °F 30% 30.23 in 10.0 mi South 13.8 mph 18.4 mph N/A   Clear
6:36 PM 48.6 °F - 18.3 °F 30% 30.23 in 10.0 mi SE 12.7 mph 21.9 mph N/A   Clear
6:55 PM 47.3 °F - 16.7 °F 30% 30.22 in 10.0 mi SE 15.0 mph 21.9 mph N/A   Clear
7:16 PM 46.9 °F - 16.7 °F 30% 30.22 in 10.0 mi SSE 15.0 mph 21.9 mph N/A   Clear
7:36 PM 46.4 °F 41.9 °F 18.3 °F 33% 30.22 in 10.0 mi SE 9.2 mph 20.7 mph N/A   Clear
7:55 PM 45.5 °F 40.3 °F 18.5 °F 34% 30.22 in 10.0 mi SE 10.4 mph 17.3 mph N/A   Clear
8:16 PM 44.8 °F 39.0 °F 18.7 °F 35% 30.23 in 10.0 mi SE 11.5 mph 17.3 mph N/A   Clear
8:35 PM 43.9 °F 39.9 °F 19.9 °F 38% 30.22 in 10.0 mi SE 6.9 mph - N/A   Clear
8:56 PM 43.7 °F 38.1 °F 20.3 °F 39% 30.23 in 10.0 mi SE 10.4 mph 17.3 mph N/A   Clear
9:16 PM 43.2 °F 37.9 °F 21.2 °F 42% 30.24 in 10.0 mi SE 9.2 mph 16.1 mph N/A   Clear
9:35 PM 43.2 °F 36.6 °F 21.7 °F 43% 30.24 in 10.0 mi ESE 12.7 mph 19.6 mph N/A   Clear
9:56 PM 43.0 °F 37.2 °F 21.9 °F 43% 30.23 in 10.0 mi SE 10.4 mph 18.4 mph N/A   Clear
10:16 PM 42.8 °F 37.0 °F 23.0 °F 46% 30.23 in 10.0 mi SE 10.4 mph 19.6 mph N/A   Clear
10:35 PM 42.4 °F 35.3 °F 23.4 °F 47% 30.23 in 10.0 mi SE 13.8 mph 20.7 mph N/A   Clear
10:56 PM 42.3 °F 35.9 °F 23.9 °F 48% 30.22 in 10.0 mi SE 11.5 mph 19.6 mph N/A   Clear
11:16 PM 41.9 °F 34.3 °F 24.4 °F 50% 30.22 in 10.0 mi SE 15.0 mph 23.0 mph N/A   Clear
11:36 PM 41.9 °F 34.6 °F 25.0 °F 51% 30.22 in 10.0 mi SE 13.8 mph 23.0 mph N/A   Clear
11:56 PM 41.7 °F 34.4 °F 25.5 °F 53% 30.22 in 10.0 mi SE 13.8 mph 24.2 mph N/A   Clear